Theta_e
313 312 312 312 312 311 311 310 311 310 310 310 310 310 311 311 312 312 312 313 313 313 313 312 312 311 306 296 295 306 316 313 307 313 308 304 299 297 294 297 299 297 298 299 301 301 301
313 313 312 312 311 311 311 311 311 311 311 310 310 310 311 311 312 313 313 313 313 313 313 313 312 311 300 289 303 306 306 306 305 302 303 304 300 300 298 297 296 299 298 300 300 298 299
312 312 312 312 311 311 310 311 311 311 311 311 311 310 311 311 312 312 312 313 313 313 313 313 312 307 297 292 305 305 304 302 304 303 300 307 306 302 301 297 301 301 295 298 298 300 297
312 312 312 311 311 311 310 311 311 310 310 311 311 311 311 311 312 313 313 312 312 312 312 312 311 302 291 303 303 302 303 301 305 305 304 305 307 303 301 304 302 296 293 288 294 297 299
312 312 312 312 311 311 310 310 310 310 310 311 311 311 311 311 312 313 313 313 312 313 312 311 303 297 290 305 302 306 304 300 302 304 305 308 306 304 302 297 292 294 287 288 292 296 297
312 312 312 311 311 311 310 310 310 310 310 310 311 311 311 311 312 312 312 312 311 310 310 309 305 294 297 298 307 309 305 303 301 303 305 302 302 300 296 292 286 289 288 289 289 293 295
312 312 312 311 311 311 310 311 310 310 310 310 310 310 310 311 312 312 308 300 295 293 298 295 296 296 299 305 311 306 310 303 302 301 294 302 296 293 296 297 298 296 292 289 292 296 294
312 312 312 311 311 310 311 311 310 310 310 310 309 310 311 311 311 311 305 297 300 299 291 300 300 300 303 305 300 304 308 298 296 291 297 295 293 298 300 300 298 297 294 290 293 297 293
312 312 311 311 311 311 311 310 310 310 310 310 309 310 310 311 310 306 301 303 308 304 290 297 304 303 301 304 300 300 303 298 293 292 293 290 295 301 299 297 296 295 293 291 291 295 294
313 312 312 311 311 311 311 310 310 310 310 309 309 309 310 310 305 304 302 309 309 303 286 293 298 301 304 304 299 307 308 303 296 291 292 294 299 298 296 295 297 291 298 296 294 290 284
314 314 313 311 311 310 310 310 310 310 309 309 309 310 310 308 300 301 306 309 307 300 273 296 298 308 305 300 300 301 308 303 295 295 295 293 295 295 294 295 299 294 298 295 294 289 288
314 314 313 312 312 311 309 309 309 309 308 309 309 309 309 305 301 305 310 309 301 284 275 291 299 298 299 300 298 301 301 305 303 297 297 296 301 296 295 299 299 300 296 294 292 289 283
314 313 313 312 312 311 309 309 309 308 308 308 309 309 307 307 300 307 308 304 285 281 295 289 293 297 296 296 296 297 295 293 292 287 286 292 293 296 299 294 297 295 290 283 281 282 282
314 314 313 312 311 310 309 308 308 307 307 307 307 307 306 307 305 306 306 294 281 291 291 298 297 296 293 296 294 295 294 290 295 293 288 286 284 293 298 295 291 291 290 284 279 279 283
315 314 314 313 312 310 309 308 307 307 307 306 305 302 304 309 309 306 297 285 288 292 296 295 295 293 293 297 294 293 292 292 295 296 288 287 288 297 298 299 296 291 288 293 287 288 284
315 315 314 313 311 310 309 308 307 307 306 306 298 299 303 308 308 303 292 289 293 299 299 297 291 295 291 294 292 290 291 297 296 299 297 293 289 296 297 297 297 292 297 287 287 280 279
315 315 314 313 311 310 309 308 307 307 306 305 298 298 306 305 306 297 285 289 294 301 302 297 294 294 296 293 294 292 293 299 302 299 298 295 293 291 294 290 289 290 289 293 292 290 282
314 314 314 313 311 309 308 307 307 306 305 301 294 291 305 305 292 290 289 294 298 298 301 300 300 298 296 297 296 295 294 298 303 301 295 297 291 285 288 294 298 293 292 292 286 287 288
313 314 314 313 311 309 308 307 307 306 305 299 291 294 303 300 285 286 292 295 300 297 296 298 297 299 300 295 293 297 299 304 303 300 296 296 291 282 286 289 294 290 292 293 293 292 288
313 313 314 313 311 309 307 307 306 306 305 299 293 288 292 291 292 288 288 290 294 300 297 298 298 299 296 295 300 297 297 302 304 303 310 302 292 288 283 286 290 289 292 296 292 285 288
311 312 313 313 310 308 307 307 306 305 305 297 291 287 289 283 287 289 289 291 289 289 295 296 294 296 294 292 295 294 298 299 303 306 303 296 290 295 296 292 293 292 292 295 293 294 289
311 311 312 313 310 308 307 307 306 305 305 296 289 288 289 288 290 289 288 287 289 290 290 292 291 294 294 293 295 292 295 297 296 300 297 298 290 293 292 296 292 290 292 293 297 297 296
310 310 311 312 309 308 306 306 306 306 302 292 295 294 290 289 288 286 286 288 291 291 294 296 295 293 293 295 297 298 298 298 298 296 296 295 292 290 287 296 295 286 291 292 297 299 299
310 310 312 312 310 307 306 305 305 306 303 294 293 293 286 284 288 288 289 291 290 290 290 296 296 293 298 301 301 301 300 299 298 297 301 298 293 291 288 291 282 292 301 298 299 302 302
311 310 311 312 310 307 306 305 305 305 305 294 295 293 289 284 288 289 290 290 290 290 290 295 296 299 299 298 295 293 294 296 299 301 301 303 295 289 285 286 292 297 301 300 298 300 305
309 310 310 311 309 308 306 305 304 305 305 295 294 295 295 289 285 291 289 289 285 286 288 292 297 298 299 297 295 287 284 292 291 295 302 300 297 291 289 285 282 295 303 308 305 296 309
309 309 309 310 309 308 306 305 305 304 304 299 294 298 296 292 292 291 288 289 291 287 284 288 291 293 299 293 291 290 289 297 289 289 291 290 291 290 289 286 291 300 304 308 292 293 307
307 307 309 310 309 307 306 305 304 304 303 299 295 296 293 292 294 296 295 289 289 287 284 288 288 294 293 289 289 290 291 293 292 296 294 291 288 289 291 287 284 305 304 298 301 307 308
307 307 308 309 308 307 305 305 305 304 303 302 292 296 299 292 291 296 296 297 296 295 292 292 288 291 294 292 291 291 290 292 293 288 299 293 298 294 293 293 303 305 305 307 307 307 308
Wind_Speed
18 18 18 18 18 18 19 19 20 20 21 22 22 22 23 22 22 21 19 18 18 17 16 15 13 10 4 4 14 14 29 23 18 6 18 15 9 6 5 3 4 11 6 4 8 11 14
18 18 18 18 18 19 20 19 20 21 21 22 22 23 23 23 22 21 19 17 16 15 14 12 12 6 1 12 9 10 14 16 8 8 14 11 7 9 4 6 5 2 7 16 10 9 8
19 19 19 19 19 20 21 21 22 23 22 22 22 23 23 24 22 20 17 15 13 13 11 9 9 3 4 16 6 4 10 6 10 13 11 9 17 6 9 6 5 10 6 6 11 16 10
19 19 20 20 20 21 23 23 24 24 24 22 23 23 24 24 22 20 17 15 13 10 10 7 6 2 9 7 7 10 14 13 13 14 16 17 14 11 4 7 8 4 3 2 5 9 8
20 20 21 21 22 22 23 24 25 25 26 25 24 24 25 24 23 20 17 14 8 5 4 4 1 3 11 8 5 10 13 8 8 10 10 15 12 10 4 5 4 4 4 5 4 6 5
21 22 22 22 22 22 23 24 25 26 26 27 25 24 24 24 22 20 14 13 2 4 4 5 4 2 7 8 3 8 6 9 5 9 6 8 10 10 3 5 8 4 4 3 5 2 6
21 22 22 23 23 23 24 25 25 27 27 28 27 25 24 24 20 16 9 4 4 2 3 7 6 6 16 3 8 9 5 5 3 4 3 2 8 14 14 7 10 6 2 2 3 6 4
21 22 23 24 25 25 24 24 26 27 28 28 28 27 25 24 22 18 2 2 5 6 7 12 17 13 17 2 10 9 5 4 5 3 6 3 7 6 8 7 11 10 6 4 4 9 5
21 22 22 24 25 24 24 26 26 26 27 27 27 25 26 25 24 2 4 4 4 5 0 8 7 3 3 6 2 6 6 4 5 3 7 3 5 6 8 8 12 11 7 3 5 7 3
20 22 23 22 23 25 26 26 28 27 28 28 27 26 23 24 4 4 3 6 5 5 4 7 6 1 4 5 1 2 4 2 1 6 4 5 6 7 9 10 9 12 6 6 5 4 4
20 21 22 23 23 25 27 27 28 28 29 30 30 26 23 10 4 3 5 6 6 5 5 14 6 5 5 2 5 1 2 2 4 3 4 5 3 4 8 13 12 3 5 4 4 4 3
21 21 22 23 24 25 27 28 29 29 30 32 33 28 18 2 1 9 1 4 4 6 4 8 5 11 9 4 2 4 2 1 5 3 4 9 9 5 6 7 8 1 2 1 1 4 2
19 20 21 23 24 25 27 30 29 30 31 34 34 33 13 3 6 3 3 3 6 6 5 8 7 12 11 3 3 1 2 4 2 2 2 4 9 5 4 1 3 4 5 1 1 1 7
17 19 20 21 23 24 26 29 31 30 33 36 36 26 4 6 6 2 4 6 7 2 4 8 9 16 3 3 2 3 2 4 5 3 3 4 4 7 5 4 4 5 7 6 6 5 5
17 18 19 21 22 24 26 27 32 31 32 37 28 5 3 7 5 4 6 6 3 3 5 9 14 5 3 0 3 3 5 4 5 11 6 3 5 4 7 8 7 5 5 5 6 2 3
18 18 18 19 21 23 25 28 30 34 34 35 5 5 5 7 6 5 6 2 2 3 7 3 4 2 6 7 3 5 7 5 6 13 8 4 5 6 8 4 10 3 7 6 5 2 3
19 19 18 17 19 21 23 26 28 31 34 28 3 5 6 7 5 6 3 5 4 2 3 2 5 8 7 4 10 5 5 5 12 6 12 4 2 4 5 6 6 3 5 5 5 4 1
18 19 18 16 17 19 23 24 26 25 30 10 5 4 4 6 6 2 3 3 4 2 3 2 5 9 9 14 6 7 7 7 8 7 7 9 5 3 7 5 7 5 9 8 5 4 5
18 17 16 14 15 17 21 24 26 26 19 6 4 4 4 7 4 4 7 8 4 2 3 2 3 5 9 7 6 10 9 10 12 7 7 5 1 3 3 3 4 5 5 5 4 5 3
17 17 16 13 14 16 19 22 26 29 26 2 3 5 7 6 1 1 5 6 7 3 3 1 3 5 10 7 7 8 10 8 17 7 9 6 3 6 6 5 5 3 4 6 4 5 5
18 16 16 13 12 14 17 19 22 27 30 3 5 3 2 6 6 10 6 4 7 6 2 1 4 3 4 6 8 6 8 13 13 13 10 3 1 3 4 8 6 8 7 11 5 7 5
17 17 16 12 9 11 14 16 19 23 28 5 3 3 5 5 8 6 5 5 7 11 4 5 2 7 2 3 4 8 10 7 5 9 9 8 2 3 5 5 11 7 10 7 9 4 5
14 15 14 11 8 9 12 14 15 16 12 3 4 3 4 6 5 5 3 10 11 12 9 6 6 5 4 3 14 19 13 14 14 8 4 4 3 4 5 6 2 3 11 8 10 7 8
13 15 13 11 7 7 10 12 13 13 8 0 3 2 2 5 4 5 13 14 15 13 8 5 7 4 6 13 15 15 11 15 15 17 10 6 4 2 4 5 2 6 5 5 7 9 14
13 14 13 13 6 6 8 10 12 11 11 1 3 3 2 5 5 14 13 12 15 13 5 4 4 5 7 7 4 7 3 1 9 10 13 12 5 0 2 3 6 4 8 3 8 1 7
14 13 13 11 4 5 6 8 10 11 11 2 3 2 3 4 4 7 13 4 7 5 7 5 6 6 6 3 3 3 2 5 4 4 9 9 3 5 3 3 2 5 3 6 8 6 7
12 12 13 11 5 6 6 8 9 10 11 4 4 3 3 5 7 2 4 8 5 4 4 7 9 8 5 4 3 3 3 4 4 3 3 3 3 3 2 1 7 7 7 3 5 10 18
13 14 12 10 6 6 6 7 9 10 11 5 5 3 2 4 12 13 7 2 5 3 4 6 7 2 3 4 3 4 4 4 5 3 5 4 5 0 3 2 8 7 1 6 6 12 21
11 12 13 12 6 6 6 7 8 10 10 8 3 4 3 4 8 12 20 22 21 24 8 4 4 3 2 3 1 3 3 4 5 3 5 3 3 2 5 7 7 4 6 1 3 11 12
Wind_Direction
15 12 10 6 2 358 356 350 346 343 339 339 335 333 329 325 321 317 313 308 304 300 297 300 296 294 339 247 249 284 298 312 316 304 198 205 195 185 234 227 266 245 265 260 215 243 264
10 8 6 5 1 357 353 348 345 341 338 339 337 333 330 324 322 319 314 307 300 298 287 284 290 292 182 261 270 284 280 293 310 3 326 191 216 199 266 241 187 116 232 247 248 253 251
7 5 3 1 358 355 351 347 344 342 339 336 333 333 330 327 329 327 323 313 309 304 296 278 273 277 243 253 230 263 298 279 291 291 289 254 216 223 191 295 256 257 241 259 239 242 248
4 2 360 358 357 355 351 346 344 342 339 337 335 332 331 330 331 330 332 328 309 308 299 278 257 235 255 252 253 271 259 273 272 263 246 256 256 220 219 287 330 288 142 229 252 197 246
1 359 358 357 355 351 349 345 343 341 340 339 337 334 331 330 331 331 330 314 314 292 273 249 181 166 266 286 232 251 225 239 290 284 247 245 230 211 224 201 345 254 217 198 304 183 214
358 357 356 355 352 349 345 343 342 340 340 339 337 335 331 328 330 328 332 320 175 5 226 209 252 273 261 317 337 284 195 187 237 304 288 205 203 203 189 149 208 211 190 184 184 165 194
355 354 352 352 350 346 343 341 340 339 339 338 337 334 331 323 325 323 343 355 13 343 208 211 235 241 282 324 284 307 360 132 73 343 348 192 207 199 208 210 275 311 255 209 219 252 182
351 350 349 348 346 344 341 338 338 338 337 335 335 334 330 323 319 314 206 220 177 201 304 244 242 241 258 237 313 353 3 115 145 179 319 313 231 222 185 217 231 250 273 288 287 246 165
348 346 345 343 341 339 340 338 338 338 336 333 332 332 329 324 320 36 183 243 129 109 100 293 281 294 43 165 345 307 5 232 144 136 217 286 283 227 243 209 209 233 233 237 215 344 240
345 342 340 340 339 337 338 339 337 338 336 332 331 331 332 328 347 310 245 158 99 103 47 326 343 122 18 129 300 62 350 296 3 180 233 281 257 251 238 233 215 228 207 243 269 26 231
341 339 338 338 338 338 337 338 337 338 336 332 329 330 328 319 274 313 245 151 101 62 45 321 305 256 107 111 321 322 262 278 178 196 140 237 242 238 258 238 238 273 188 224 245 216 326
336 336 335 334 335 339 337 337 338 339 337 333 329 328 332 92 196 236 288 99 57 45 320 330 297 329 337 282 174 309 4 271 241 240 247 269 290 273 235 260 243 164 9 56 67 131 215
326 329 331 332 334 338 338 334 338 339 338 333 330 323 314 217 237 154 146 35 26 56 320 297 300 322 319 260 104 338 26 311 295 149 267 298 258 234 255 13 9 94 82 15 68 99 216
322 324 327 329 333 336 339 337 337 341 338 334 328 320 224 219 247 47 37 39 46 344 297 295 309 309 284 192 118 145 278 282 245 230 298 235 299 188 186 175 163 164 156 156 168 179 249
317 319 323 329 332 337 339 341 335 341 341 335 327 332 286 263 229 107 73 47 317 304 290 306 318 296 322 342 195 150 222 240 239 183 192 272 245 152 179 168 141 140 141 172 100 264 63
317 319 322 328 331 338 339 340 342 341 342 335 326 330 281 294 139 73 65 244 256 220 290 283 292 4 315 344 269 189 191 201 243 203 184 293 324 188 197 161 211 155 163 65 22 117 243
327 322 323 325 333 337 340 341 345 343 343 334 15 10 273 330 65 52 131 240 265 305 6 337 318 300 289 299 317 267 248 236 210 210 165 163 187 297 105 181 154 111 76 41 99 133 257
333 327 323 324 334 338 340 343 344 350 344 25 344 357 305 16 46 360 327 253 257 324 342 330 283 268 289 323 289 239 251 227 181 168 168 201 175 212 190 206 148 145 150 160 131 203 208
337 328 327 325 334 341 341 344 342 344 1 314 327 275 319 67 55 328 308 310 251 248 225 257 248 324 320 305 321 302 326 282 235 185 192 191 194 57 111 354 46 146 172 135 125 78 207
332 333 331 326 335 343 345 346 343 340 347 44 4 352 330 22 81 348 336 291 311 223 214 309 283 1 346 322 293 299 321 320 326 291 141 99 159 150 192 205 167 163 156 156 128 120 206
338 339 333 326 338 345 347 348 348 343 341 81 22 329 28 309 321 326 301 273 325 331 280 10 349 328 354 301 313 354 330 336 334 7 347 58 72 344 273 206 179 201 233 164 158 168 147
339 341 335 328 336 344 347 349 352 351 341 65 59 15 336 281 280 310 345 338 319 331 291 305 241 298 272 283 321 308 333 342 272 328 343 328 281 25 327 273 194 208 231 204 153 176 127
337 338 334 329 328 342 342 348 355 2 6 29 315 320 126 277 312 344 331 315 339 350 318 325 318 334 306 335 301 282 261 251 250 288 324 300 33 39 288 345 300 309 241 195 179 187 145
337 336 330 324 310 329 337 345 349 4 34 229 274 340 31 279 318 316 313 337 337 329 298 316 22 3 297 295 290 273 253 236 239 246 213 288 48 270 253 4 126 233 352 205 143 135 123
333 333 330 324 306 330 330 337 342 352 357 96 289 333 328 291 281 303 341 326 327 317 284 308 332 272 299 299 304 309 335 242 230 225 190 207 148 78 101 127 288 11 14 336 143 48 119
331 330 328 323 297 299 307 329 334 341 348 359 269 209 291 305 279 326 316 319 301 308 336 295 315 313 351 289 286 296 272 231 280 107 51 119 174 121 29 48 211 241 267 16 65 151 128
326 327 328 320 289 292 308 322 328 334 340 341 279 10 295 281 264 261 287 311 288 343 286 299 327 344 1 340 303 291 283 303 319 315 125 72 349 109 111 36 280 247 260 145 145 210 168
322 325 315 314 277 280 295 317 325 330 331 342 283 276 202 264 282 264 269 217 301 266 267 296 343 22 325 1 341 337 323 323 345 15 329 162 135 253 92 233 271 197 176 175 215 143 158
315 319 321 317 267 269 279 295 309 320 319 323 276 308 302 233 261 290 279 263 251 262 250 236 241 2 265 298 327 307 323 317 333 305 331 48 56 289 191 232 4 269 192 310 143 153 156